Location: ??????????
(54.8537°N, 38.8755°E)
Time: 01:32:12
(UTC+00:00)

Transit 4A - Pass Details

Date: 22 September 2024
Orbit: 865 x 977 km, 66.8° (Epoch: 09 October)

Event Time Altitude Azimuth Distance (km) Brightness Sun altitude
Exits shadow 00:42:39 35° 269° (W) 1,424 8.4 -20.9°
Maximum altitude 00:44:52 52° 324° (NW) 1,121 8.2 -20.6°
Drops below altitude 10° 00:50:51 10° 40° (NE) 2,643 11.3 -19.9°
Sets 00:53:31 0° 46° (NE) 3,607 12.4 -19.6°
